| time (UTC) | temp F | wind direction | speed MPH | gust MPH | rain 1hr in | rain 24hr in | rain mn in | humidity % | barometer mb |
| 20260508122101 | 56 | 360 | 3.0 | 9.0 | 0.00 | 0.00 | 0.00 | 71 | 1020.1 |
| 20260508121607 | 56 | 360 | 3.0 | 8.0 | 0.00 | 0.00 | 0.00 | 72 | 1020.1 |
| 20260508121057 | 55 | 360 | 2.0 | 9.0 | 0.00 | 0.00 | 0.00 | 72 | 1020.0 |
| 20260508120557 | 55 | 360 | 5.0 | 9.0 | 0.00 | 0.00 | 0.00 | 73 | 1020.0 |
| 20260508120058 | 55 | 360 | 2.0 | 6.0 | 0.00 | 0.00 | 0.00 | 73 | 1020.0 |
| 20260508115557 | 54 | 360 | 3.0 | 6.0 | 0.00 | 0.00 | 0.00 | 74 | 1020.0 |
| 20260508115057 | 54 | 360 | 2.0 | 6.0 | 0.00 | 0.00 | 0.00 | 76 | 1020.0 |
| 20260508114556 | 53 | 360 | 1.0 | 6.0 | 0.00 | 0.00 | 0.00 | 77 | 1020.1 |
| 20260508114057 | 53 | 360 | 3.0 | 6.0 | 0.00 | 0.00 | 0.00 | 77 | 1020.1 |
| 20260508113558 | 53 | 360 | 2.0 | 6.0 | 0.00 | 0.00 | 0.00 | 77 | 1020.2 |
| 20260508113110 | 52 | 360 | 2.0 | 6.0 | 0.00 | 0.00 | 0.00 | 77 | 1020.1 |
| 20260508112557 | 52 | 360 | 3.0 | 5.0 | 0.00 | 0.00 | 0.00 | 78 | 1020.1 |
| 20260508112057 | 52 | 360 | 2.0 | 5.0 | 0.00 | 0.00 | 0.00 | 79 | 1020.1 |
| 20260508111557 | 52 | 360 | 1.0 | 5.0 | 0.00 | 0.00 | 0.00 | 79 | 1020.2 |
| 20260508111100 | 52 | 360 | 1.0 | 6.0 | 0.00 | 0.00 | 0.00 | 78 | 1020.2 |
| 20260508110557 | 52 | 360 | 3.0 | 8.0 | 0.00 | 0.00 | 0.00 | 78 | 1020.2 |
| 20260508110058 | 53 | 360 | 3.0 | 8.0 | 0.00 | 0.00 | 0.00 | 77 | 1020.2 |
| 20260508105600 | 53 | 360 | 2.0 | 6.0 | 0.00 | 0.00 | 0.00 | 77 | 1020.2 |
| 20260508105057 | 53 | 360 | 3.0 | 6.0 | 0.00 | 0.00 | 0.00 | 76 | 1020.1 |
| 20260508104620 | 53 | 360 | 3.0 | 6.0 | 0.00 | 0.00 | 0.00 | 74 | 1020.2 |
| 20260508104101 | 53 | 360 | 4.0 | 6.0 | 0.00 | 0.00 | 0.00 | 73 | 1020.1 |
| 20260508103559 | 53 | 360 | 3.0 | 6.0 | 0.00 | 0.00 | 0.00 | 73 | 1020.1 |
| 20260508103058 | 53 | 0 | 2.0 | 8.0 | 0.00 | 0.00 | 0.00 | 73 | 1020.0 |
| 20260508102556 | 53 | 360 | 4.0 | 8.0 | 0.00 | 0.00 | 0.00 | 73 | 1020.1 |
| 20260508102058 | 53 | 360 | 3.0 | 10.0 | 0.00 | 0.00 | 0.00 | 73 | 1020.1 |
| 20260508101559 | 53 | 360 | 5.0 | 10.0 | 0.00 | 0.00 | 0.00 | 74 | 1020.1 |
| 20260508101058 | 53 | 360 | 4.0 | 8.0 | 0.00 | 0.00 | 0.00 | 74 | 1020.1 |
| 20260508100557 | 53 | 360 | 3.0 | 9.0 | 0.00 | 0.00 | 0.00 | 74 | 1020.1 |
| 20260508100057 | 54 | 360 | 3.0 | 9.0 | 0.00 | 0.00 | 0.00 | 73 | 1020.1 |
| 20260508095558 | 54 | 360 | 3.0 | 11.0 | 0.00 | 0.01 | 0.00 | 73 | 1020.1 |
| 20260508095057 | 54 | 360 | 5.0 | 11.0 | 0.00 | 0.01 | 0.00 | 73 | 1020.2 |
| 20260508094558 | 54 | 360 | 3.0 | 9.0 | 0.00 | 0.01 | 0.00 | 73 | 1020.1 |
| 20260508094101 | 55 | 360 | 4.0 | 9.0 | 0.00 | 0.01 | 0.00 | 72 | 1020.0 |
| 20260508093600 | 55 | 360 | 2.0 | 8.0 | 0.00 | 0.01 | 0.00 | 73 | 1020.1 |
| 20260508093057 | 55 | 0 | 2.0 | 8.0 | 0.00 | 0.01 | 0.00 | 70 | 1020.0 |
| 20260508092556 | 55 | 360 | 2.0 | 6.0 | 0.00 | 0.01 | 0.00 | 71 | 1020.1 |
| 20260508092101 | 56 | 360 | 2.0 | 8.0 | 0.00 | 0.01 | 0.00 | 70 | 1020.1 |
| 20260508091614 | 56 | 360 | 3.0 | 8.0 | 0.00 | 0.01 | 0.00 | 69 | 1020.0 |
| 20260508091059 | 56 | 360 | 3.0 | 8.0 | 0.00 | 0.01 | 0.00 | 71 | 1020.1 |
| 20260508090601 | 56 | 360 | 3.0 | 8.0 | 0.00 | 0.01 | 0.00 | 72 | 1020.1 |
| 20260508090108 | 56 | 360 | 1.0 | 5.0 | 0.00 | 0.01 | 0.00 | 72 | 1020.1 |
| 20260508085557 | 55 | 360 | 2.0 | 6.0 | 0.00 | 0.02 | 0.00 | 72 | 1020.1 |
| 20260508085057 | 55 | 360 | 2.0 | 10.0 | 0.00 | 0.02 | 0.00 | 73 | 1020.1 |
| 20260508084556 | 55 | 360 | 5.0 | 10.0 | 0.00 | 0.02 | 0.00 | 75 | 1020.2 |
| 20260508084058 | 54 | 360 | 4.0 | 9.0 | 0.00 | 0.02 | 0.00 | 76 | 1020.1 |
| 20260508083558 | 54 | 360 | 3.0 | 8.0 | 0.00 | 0.02 | 0.00 | 77 | 1020.1 |
| 20260508083110 | 53 | 360 | 2.0 | 8.0 | 0.00 | 0.02 | 0.00 | 80 | 1020.1 |
| 20260508082557 | 53 | 0 | 3.0 | 8.0 | 0.00 | 0.02 | 0.00 | 80 | 1020.2 |
| 20260508082057 | 52 | 360 | 3.0 | 5.0 | 0.00 | 0.02 | 0.00 | 80 | 1020.1 |
| 20260508081600 | 52 | 360 | 1.0 | 4.0 | 0.00 | 0.02 | 0.00 | 82 | 1020.1 |
| 20260508081100 | 52 | 0 | 0.0 | 4.0 | 0.00 | 0.02 | 0.00 | 83 | 1020.0 |
| 20260508080558 | 52 | 0 | 2.0 | 6.0 | 0.00 | 0.02 | 0.00 | 82 | 1020.0 |
| 20260508080111 | 52 | 360 | 3.0 | 6.0 | 0.00 | 0.02 | 0.00 | 82 | 1020.0 |
| 20260508075558 | 52 | 360 | 2.0 | 5.0 | 0.00 | 0.02 | 0.00 | 82 | 1020.0 |
| 20260508075056 | 52 | 0 | 2.0 | 4.0 | 0.00 | 0.02 | 0.00 | 83 | 1020.0 |
| 20260508074555 | 51 | 360 | 1.0 | 4.0 | 0.00 | 0.02 | 0.00 | 82 | 1019.9 |
| 20260508074056 | 51 | 0 | 0.0 | 8.0 | 0.00 | 0.02 | 0.00 | 80 | 1020.0 |
| 20260508073558 | 51 | 360 | 2.0 | 8.0 | 0.00 | 0.02 | 0.00 | 81 | 1019.9 |
| 20260508073103 | 51 | 360 | 2.0 | 6.0 | 0.00 | 0.02 | 0.00 | 82 | 1019.9 |
| 20260508072558 | 51 | 360 | 3.0 | 8.0 | 0.00 | 0.02 | 0.00 | 83 | 1019.8 |
| 20260508072057 | 51 | 360 | 3.0 | 8.0 | 0.00 | 0.02 | 0.00 | 83 | 1019.7 |
| 20260508071603 | 50 | 360 | 4.0 | 6.0 | 0.00 | 0.02 | 0.00 | 82 | 1019.8 |
| 20260508071057 | 50 | 360 | 1.0 | 5.0 | 0.00 | 0.02 | 0.00 | 84 | 1019.8 |
| 20260508070558 | 49 | 360 | 3.0 | 5.0 | 0.00 | 0.02 | 0.00 | 84 | 1019.8 |
| 20260508070141 | 49 | 0 | 1.0 | 4.0 | 0.00 | 0.02 | 0.00 | 85 | 1019.7 |
| 20260508065557 | 48 | 360 | 0.0 | 4.0 | 0.00 | 0.02 | 0.00 | 86 | 1019.8 |
| 20260508065057 | 48 | 360 | 1.0 | 4.0 | 0.00 | 0.02 | 0.00 | 86 | 1019.7 |
| 20260508064609 | 47 | 0 | 1.0 | 4.0 | 0.00 | 0.02 | 0.00 | 87 | 1019.6 |
| 20260508064059 | 47 | 360 | 2.0 | 5.0 | 0.00 | 0.02 | 0.00 | 87 | 1019.7 |
| 20260508063557 | 46 | 360 | 2.0 | 5.0 | 0.00 | 0.02 | 0.00 | 88 | 1019.5 |
| 20260508063100 | 46 | 360 | 1.0 | 4.0 | 0.00 | 0.02 | 0.00 | 88 | 1019.5 |
| 20260508062556 | 46 | 360 | 1.0 | 4.0 | 0.00 | 0.02 | 0.00 | 88 | 1019.5 |
| 20260508062056 | 45 | 0 | 1.0 | 3.0 | 0.00 | 0.02 | 0.00 | 89 | 1019.4 |
| 20260508061605 | 45 | 360 | 1.0 | 4.0 | 0.00 | 0.02 | 0.00 | 89 | 1019.3 |
| 20260508061100 | 45 | 360 | 1.0 | 5.0 | 0.00 | 0.02 | 0.00 | 90 | 1019.2 |
| 20260508060556 | 45 | 360 | 2.0 | 5.0 | 0.00 | 0.02 | 0.00 | 90 | 1019.2 |
| 20260508055556 | 44 | 360 | 3.0 | 6.0 | 0.00 | 0.02 | 0.00 | 92 | 1019.1 |
| 20260508055056 | 43 | 360 | 3.0 | 5.0 | 0.00 | 0.02 | 0.00 | 93 | 1019.0 |
| 20260508054559 | 43 | 360 | 1.0 | 4.0 | 0.00 | 0.02 | 0.00 | 93 | 1018.9 |
| 20260508054057 | 43 | 0 | 0.0 | 5.0 | 0.00 | 0.02 | 0.00 | 94 | 1018.9 |
| 20260508053557 | 42 | 360 | 1.0 | 5.0 | 0.00 | 0.02 | 0.00 | 94 | 1018.9 |
| 20260508053105 | 42 | 360 | 2.0 | 6.0 | 0.00 | 0.02 | 0.00 | 94 | 1018.9 |
| 20260508052557 | 42 | 360 | 3.0 | 6.0 | 0.00 | 0.02 | 0.00 | 94 | 1018.9 |
| 20260508052056 | 42 | 360 | 2.0 | 6.0 | 0.00 | 0.02 | 0.00 | 94 | 1018.9 |
| 20260508051557 | 41 | 360 | 2.0 | 6.0 | 0.00 | 0.02 | 0.00 | 94 | 1018.9 |
| 20260508051059 | 41 | 360 | 3.0 | 8.0 | 0.00 | 0.02 | 0.00 | 94 | 1018.9 |
| 20260508050557 | 41 | 360 | 2.0 | 8.0 | 0.00 | 0.02 | 0.00 | 94 | 1018.8 |
| 20260508045556 | 41 | 360 | 3.0 | 6.0 | 0.00 | 0.02 | 0.00 | 94 | 1018.8 |
| 20260508045056 | 41 | 360 | 2.0 | 5.0 | 0.00 | 0.02 | 0.00 | 94 | 1018.8 |
| 20260508044601 | 40 | 360 | 1.0 | 5.0 | 0.00 | 0.02 | 0.00 | 94 | 1018.8 |
| 20260508044058 | 40 | 360 | 2.0 | 4.0 | 0.00 | 0.02 | 0.00 | 94 | 1018.8 |
| 20260508043556 | 40 | 360 | 2.0 | 4.0 | 0.00 | 0.02 | 0.00 | 93 | 1018.7 |
| 20260508043104 | 40 | 0 | 2.0 | 4.0 | 0.00 | 0.02 | 0.00 | 93 | 1018.8 |
| 20260508042557 | 40 | 360 | 0.0 | 3.0 | 0.00 | 0.02 | 0.00 | 93 | 1018.7 |
| 20260508042056 | 40 | 360 | 2.0 | 3.0 | 0.00 | 0.02 | 0.00 | 93 | 1018.7 |
| 20260508041558 | 40 | 360 | 1.0 | 4.0 | 0.00 | 0.02 | 0.00 | 93 | 1018.7 |
| 20260508041059 | 40 | 0 | 0.0 | 4.0 | 0.00 | 0.02 | 0.00 | 93 | 1018.7 |
| 20260508040558 | 40 | 360 | 1.0 | 3.0 | 0.00 | 0.02 | 0.00 | 93 | 1018.7 |
| 20260508040100 | 40 | 0 | 0.0 | 0.0 | 0.00 | 0.02 | 0.00 | 93 | 1018.6 |
| 20260508035600 | 40 | 0 | 0.0 | 0.0 | 0.00 | 0.03 | 0.00 | 93 | 1018.6 |
| 20260508035057 | 40 | 0 | 0.0 | 0.0 | 0.00 | 0.03 | 0.00 | 93 | 1018.7 |
| 20260508034603 | 40 | 0 | 0.0 | 0.0 | 0.00 | 0.03 | 0.00 | 93 | 1018.6 |
| 20260508034057 | 40 | 0 | 0.0 | 0.0 | 0.00 | 0.03 | 0.00 | 93 | 1018.7 |
| 20260508033557 | 40 | 0 | 0.0 | 0.0 | 0.00 | 0.03 | 0.00 | 93 | 1018.6 |
| 20260508033058 | 41 | 0 | 0.0 | 0.0 | 0.00 | 0.03 | 0.00 | 93 | 1018.6 |
| 20260508032557 | 41 | 0 | 0.0 | 0.0 | 0.00 | 0.03 | 0.00 | 93 | 1018.7 |
| 20260508032059 | 41 | 0 | 0.0 | 0.0 | 0.00 | 0.03 | 0.00 | 93 | 1018.7 |
| 20260508031559 | 41 | 0 | 0.0 | 0.0 | 0.00 | 0.03 | 0.00 | 93 | 1018.7 |
| 20260508031101 | 41 | 0 | 0.0 | 0.0 | 0.00 | 0.03 | 0.00 | 93 | 1018.7 |
| 20260508030557 | 41 | 0 | 0.0 | 0.0 | 0.00 | 0.03 | 0.00 | 93 | 1018.7 |
| 20260508025557 | 41 | 0 | 0.0 | 0.0 | 0.00 | 0.04 | 0.00 | 93 | 1018.6 |
| 20260508025057 | 41 | 0 | 0.0 | 0.0 | 0.00 | 0.04 | 0.00 | 93 | 1018.6 |
| 20260508024601 | 41 | 0 | 0.0 | 0.0 | 0.00 | 0.04 | 0.00 | 93 | 1018.6 |
| 20260508024100 | 41 | 0 | 0.0 | 0.0 | 0.00 | 0.04 | 0.00 | 93 | 1018.7 |
| 20260508023557 | 41 | 0 | 0.0 | 0.0 | 0.00 | 0.04 | 0.00 | 93 | 1018.7 |
| 20260508023058 | 41 | 0 | 0.0 | 0.0 | 0.00 | 0.04 | 0.00 | 93 | 1018.7 |
| 20260508022559 | 41 | 0 | 0.0 | 0.0 | 0.00 | 0.04 | 0.00 | 93 | 1018.7 |
| 20260508022058 | 41 | 0 | 0.0 | 0.0 | 0.00 | 0.04 | 0.00 | 93 | 1018.8 |
| 20260508021559 | 41 | 0 | 0.0 | 0.0 | 0.00 | 0.04 | 0.00 | 93 | 1018.8 |
| 20260508021056 | 41 | 0 | 0.0 | 0.0 | 0.00 | 0.04 | 0.00 | 93 | 1018.7 |
| 20260508020602 | 41 | 0 | 0.0 | 0.0 | 0.00 | 0.04 | 0.00 | 93 | 1018.7 |
| 20260508020057 | 41 | 0 | 0.0 | 0.0 | 0.00 | 0.04 | 0.00 | 93 | 1018.7 |
| 20260508015558 | 41 | 0 | 0.0 | 0.0 | 0.00 | 0.07 | 0.00 | 92 | 1018.6 |
| 20260508015059 | 41 | 0 | 0.0 | 0.0 | 0.00 | 0.07 | 0.00 | 92 | 1018.6 |
| 20260508014556 | 41 | 0 | 0.0 | 0.0 | 0.00 | 0.07 | 0.00 | 92 | 1018.5 |
| 20260508014057 | 41 | 0 | 0.0 | 0.0 | 0.00 | 0.07 | 0.00 | 92 | 1018.4 |
| 20260508013557 | 41 | 0 | 0.0 | 0.0 | 0.00 | 0.07 | 0.00 | 91 | 1018.4 |
| 20260508013105 | 41 | 0 | 0.0 | 0.0 | 0.00 | 0.07 | 0.00 | 91 | 1018.4 |
| 20260508012557 | 41 | 0 | 0.0 | 0.0 | 0.00 | 0.07 | 0.00 | 91 | 1018.5 |
| 20260508012057 | 41 | 0 | 0.0 | 0.0 | 0.00 | 0.07 | 0.00 | 91 | 1018.4 |
| 20260508011557 | 41 | 0 | 0.0 | 0.0 | 0.00 | 0.07 | 0.00 | 91 | 1018.5 |
| 20260508011057 | 41 | 0 | 0.0 | 0.0 | 0.00 | 0.07 | 0.00 | 91 | 1018.4 |
| 20260508010557 | 41 | 0 | 0.0 | 0.0 | 0.00 | 0.07 | 0.00 | 91 | 1018.4 |
| 20260508010056 | 41 | 0 | 0.0 | 0.0 | 0.00 | 0.07 | 0.00 | 90 | 1018.4 |
| 20260508005556 | 41 | 0 | 0.0 | 0.0 | 0.00 | 0.07 | 0.00 | 90 | 1018.5 |
| 20260508005057 | 41 | 0 | 0.0 | 0.0 | 0.00 | 0.07 | 0.00 | 90 | 1018.5 |
| 20260508004555 | 41 | 0 | 0.0 | 0.0 | 0.00 | 0.07 | 0.00 | 90 | 1018.4 |
| 20260508004057 | 41 | 0 | 0.0 | 0.0 | 0.00 | 0.07 | 0.00 | 90 | 1018.5 |
| 20260508003600 | 42 | 0 | 0.0 | 0.0 | 0.00 | 0.07 | 0.00 | 90 | 1018.4 |
| 20260508003055 | 42 | 0 | 0.0 | 0.0 | 0.00 | 0.07 | 0.00 | 90 | 1018.4 |
| 20260508002557 | 42 | 0 | 0.0 | 0.0 | 0.00 | 0.07 | 0.00 | 90 | 1018.4 |
| 20260508002057 | 42 | 0 | 0.0 | 0.0 | 0.00 | 0.07 | 0.00 | 90 | 1018.5 |
| 20260508001557 | 42 | 0 | 0.0 | 0.0 | 0.00 | 0.07 | 0.00 | 90 | 1018.5 |
| 20260508001056 | 42 | 0 | 0.0 | 0.0 | 0.00 | 0.07 | 0.00 | 90 | 1018.5 |
| 20260508000557 | 43 | 0 | 0.0 | 0.0 | 0.00 | 0.07 | 0.00 | 90 | 1018.6 |
| 20260508000057 | 43 | 0 | 0.0 | 0.0 | 0.00 | 0.07 | 0.00 | 90 | 1018.5 |
| 20260507235556 | 43 | 0 | 0.0 | 0.0 | 0.00 | 0.08 | 0.00 | 90 | 1018.5 |
| 20260507235059 | 43 | 0 | 0.0 | 0.0 | 0.00 | 0.08 | 0.00 | 90 | 1018.5 |
| 20260507234557 | 43 | 0 | 0.0 | 0.0 | 0.00 | 0.08 | 0.00 | 90 | 1018.5 |
| 20260507234056 | 43 | 0 | 0.0 | 0.0 | 0.00 | 0.08 | 0.00 | 90 | 1018.4 |
| 20260507233556 | 44 | 0 | 0.0 | 0.0 | 0.00 | 0.08 | 0.00 | 91 | 1018.5 |
| 20260507233058 | 44 | 0 | 0.0 | 0.0 | 0.00 | 0.08 | 0.00 | 91 | 1018.5 |
| 20260507232601 | 44 | 0 | 0.0 | 0.0 | 0.00 | 0.08 | 0.00 | 91 | 1018.4 |
| 20260507232056 | 44 | 0 | 0.0 | 0.0 | 0.00 | 0.08 | 0.00 | 91 | 1018.4 |
| 20260507231557 | 44 | 0 | 0.0 | 0.0 | 0.00 | 0.08 | 0.00 | 91 | 1018.3 |
| 20260507231057 | 44 | 0 | 0.0 | 0.0 | 0.00 | 0.08 | 0.00 | 91 | 1018.4 |
| 20260507230557 | 45 | 0 | 0.0 | 0.0 | 0.00 | 0.08 | 0.00 | 91 | 1018.3 |
| 20260507230100 | 45 | 0 | 0.0 | 0.0 | 0.00 | 0.08 | 0.00 | 91 | 1018.3 |
| 20260507225556 | 45 | 0 | 0.0 | 0.0 | 0.00 | 0.11 | 0.00 | 91 | 1018.3 |
| 20260507225057 | 45 | 0 | 0.0 | 0.0 | 0.00 | 0.11 | 0.00 | 91 | 1018.3 |
| 20260507224557 | 45 | 0 | 0.0 | 0.0 | 0.00 | 0.11 | 0.00 | 91 | 1018.4 |
| 20260507224056 | 45 | 0 | 0.0 | 0.0 | 0.00 | 0.11 | 0.00 | 91 | 1018.4 |
| 20260507223556 | 45 | 0 | 0.0 | 0.0 | 0.00 | 0.11 | 0.00 | 91 | 1018.4 |
| 20260507223057 | 45 | 0 | 0.0 | 0.0 | 0.00 | 0.11 | 0.00 | 91 | 1018.4 |
| 20260507222556 | 45 | 0 | 0.0 | 0.0 | 0.00 | 0.11 | 0.00 | 91 | 1018.3 |
| 20260507222056 | 45 | 0 | 0.0 | 0.0 | 0.00 | 0.11 | 0.00 | 90 | 1018.3 |
| 20260507221600 | 45 | 0 | 0.0 | 0.0 | 0.00 | 0.11 | 0.00 | 91 | 1018.3 |
| 20260507221057 | 45 | 0 | 0.0 | 0.0 | 0.00 | 0.11 | 0.00 | 90 | 1018.4 |
| 20260507220557 | 45 | 0 | 0.0 | 0.0 | 0.00 | 0.11 | 0.00 | 90 | 1018.4 |
| 20260507220059 | 45 | 0 | 0.0 | 0.0 | 0.00 | 0.11 | 0.00 | 90 | 1018.3 |
| 20260507215558 | 46 | 0 | 0.0 | 0.0 | 0.00 | 0.16 | 0.11 | 90 | 1018.3 |
| 20260507215057 | 46 | 0 | 0.0 | 0.0 | 0.00 | 0.16 | 0.11 | 90 | 1018.3 |
| 20260507214559 | 46 | 0 | 0.0 | 0.0 | 0.00 | 0.16 | 0.11 | 90 | 1018.2 |
| 20260507214056 | 46 | 0 | 0.0 | 0.0 | 0.00 | 0.16 | 0.11 | 90 | 1018.2 |
| 20260507213556 | 46 | 0 | 0.0 | 0.0 | 0.00 | 0.16 | 0.11 | 90 | 1018.1 |
| 20260507213106 | 46 | 0 | 0.0 | 0.0 | 0.00 | 0.16 | 0.11 | 90 | 1018.1 |
| 20260507212557 | 46 | 0 | 0.0 | 0.0 | 0.00 | 0.16 | 0.11 | 90 | 1018.1 |
| 20260507212056 | 46 | 0 | 0.0 | 0.0 | 0.00 | 0.16 | 0.11 | 91 | 1018.2 |
| 20260507211601 | 46 | 0 | 0.0 | 0.0 | 0.00 | 0.16 | 0.11 | 90 | 1018.1 |
| 20260507211056 | 46 | 0 | 0.0 | 0.0 | 0.00 | 0.16 | 0.11 | 90 | 1018.1 |
| 20260507210558 | 46 | 0 | 0.0 | 0.0 | 0.00 | 0.16 | 0.11 | 90 | 1018.1 |
| 20260507210058 | 46 | 0 | 0.0 | 0.0 | 0.00 | 0.16 | 0.11 | 91 | 1018.0 |
| 20260507205557 | 47 | 0 | 0.0 | 0.0 | 0.00 | 0.16 | 0.11 | 90 | 1018.0 |
| 20260507205104 | 46 | 0 | 0.0 | 0.0 | 0.00 | 0.16 | 0.11 | 90 | 1018.0 |
| 20260507204603 | 47 | 0 | 0.0 | 0.0 | 0.00 | 0.16 | 0.11 | 90 | 1018.0 |
| 20260507204058 | 47 | 0 | 0.0 | 0.0 | 0.00 | 0.16 | 0.11 | 90 | 1018.0 |
| 20260507203557 | 47 | 0 | 0.0 | 0.0 | 0.00 | 0.16 | 0.11 | 90 | 1017.9 |
| 20260507203057 | 47 | 0 | 0.0 | 0.0 | 0.00 | 0.16 | 0.11 | 90 | 1017.8 |
| 20260507202556 | 47 | 0 | 0.0 | 0.0 | 0.00 | 0.16 | 0.11 | 90 | 1017.9 |
| 20260507202057 | 47 | 0 | 0.0 | 0.0 | 0.00 | 0.16 | 0.11 | 90 | 1017.9 |
| 20260507201604 | 47 | 0 | 0.0 | 0.0 | 0.00 | 0.16 | 0.11 | 90 | 1017.8 |
| 20260507201059 | 47 | 0 | 0.0 | 0.0 | 0.00 | 0.16 | 0.11 | 89 | 1017.7 |
| 20260507200559 | 47 | 0 | 0.0 | 0.0 | 0.00 | 0.16 | 0.11 | 90 | 1017.8 |
| 20260507200100 | 47 | 0 | 0.0 | 0.0 | 0.00 | 0.16 | 0.11 | 89 | 1017.7 |
| 20260507195601 | 47 | 0 | 0.0 | 0.0 | 0.00 | 0.16 | 0.11 | 89 | 1017.7 |
| 20260507195059 | 47 | 0 | 0.0 | 0.0 | 0.00 | 0.16 | 0.11 | 89 | 1017.6 |
| 20260507194603 | 47 | 0 | 0.0 | 0.0 | 0.00 | 0.16 | 0.11 | 89 | 1017.6 |
| 20260507194058 | 47 | 0 | 0.0 | 0.0 | 0.00 | 0.16 | 0.11 | 89 | 1017.6 |
| 20260507193600 | 47 | 0 | 0.0 | 0.0 | 0.00 | 0.16 | 0.11 | 89 | 1017.6 |
| 20260507193058 | 48 | 0 | 0.0 | 0.0 | 0.00 | 0.16 | 0.11 | 89 | 1017.6 |
| 20260507192559 | 48 | 0 | 0.0 | 0.0 | 0.00 | 0.16 | 0.11 | 89 | 1017.6 |
| 20260507192059 | 48 | 0 | 0.0 | 0.0 | 0.00 | 0.16 | 0.11 | 89 | 1017.6 |
| 20260507191616 | 48 | 0 | 0.0 | 0.0 | 0.00 | 0.16 | 0.11 | 89 | 1017.5 |
| 20260507191059 | 48 | 0 | 0.0 | 0.0 | 0.00 | 0.16 | 0.11 | 89 | 1017.5 |
| 20260507190559 | 48 | 0 | 0.0 | 0.0 | 0.00 | 0.16 | 0.11 | 89 | 1017.6 |
| 20260507190059 | 48 | 0 | 0.0 | 0.0 | 0.00 | 0.16 | 0.11 | 89 | 1017.5 |
| 20260507185556 | 48 | 0 | 0.0 | 0.0 | 0.00 | 0.18 | 0.11 | 89 | 1017.4 |
| 20260507185058 | 48 | 0 | 0.0 | 0.0 | 0.00 | 0.18 | 0.11 | 89 | 1017.3 |
| 20260507184603 | 48 | 0 | 0.0 | 0.0 | 0.00 | 0.18 | 0.11 | 89 | 1017.3 |
| 20260507184056 | 48 | 0 | 0.0 | 1.0 | 0.00 | 0.18 | 0.11 | 89 | 1017.2 |
| 20260507183558 | 48 | 0 | 0.0 | 2.0 | 0.00 | 0.18 | 0.11 | 88 | 1017.3 |
| 20260507183105 | 48 | 0 | 0.0 | 2.0 | 0.00 | 0.18 | 0.11 | 88 | 1017.3 |
| 20260507182558 | 48 | 0 | 0.0 | 2.0 | 0.00 | 0.18 | 0.11 | 88 | 1017.2 |
| 20260507182056 | 48 | 0 | 0.0 | 2.0 | 0.00 | 0.18 | 0.11 | 88 | 1017.2 |
| 20260507181556 | 49 | 0 | 0.0 | 2.0 | 0.00 | 0.18 | 0.11 | 88 | 1017.2 |
| 20260507181059 | 49 | 0 | 0.0 | 2.0 | 0.00 | 0.18 | 0.11 | 88 | 1017.1 |
| 20260507180558 | 49 | 0 | 0.0 | 0.0 | 0.00 | 0.18 | 0.11 | 88 | 1017.1 |
| 20260507180101 | 49 | 0 | 0.0 | 2.0 | 0.00 | 0.18 | 0.11 | 88 | 1017.1 |
| 20260507175556 | 49 | 0 | 0.0 | 2.0 | 0.00 | 0.18 | 0.11 | 88 | 1017.1 |
| 20260507175056 | 49 | 360 | 0.0 | 0.0 | 0.00 | 0.18 | 0.11 | 87 | 1017.1 |
| 20260507174614 | 49 | 0 | 0.0 | 0.0 | 0.00 | 0.18 | 0.11 | 87 | 1017.0 |
| 20260507174055 | 49 | 0 | 0.0 | 0.0 | 0.00 | 0.18 | 0.11 | 87 | 1017.0 |
| 20260507173556 | 49 | 0 | 0.0 | 0.0 | 0.00 | 0.18 | 0.11 | 87 | 1017.0 |
| 20260507173058 | 49 | 0 | 0.0 | 0.0 | 0.00 | 0.18 | 0.11 | 87 | 1017.0 |
| 20260507172557 | 49 | 0 | 0.0 | 3.0 | 0.00 | 0.18 | 0.11 | 87 | 1016.9 |
| 20260507172057 | 49 | 0 | 0.0 | 3.0 | 0.00 | 0.18 | 0.11 | 87 | 1016.8 |
| 20260507171559 | 49 | 0 | 0.0 | 1.0 | 0.00 | 0.18 | 0.11 | 87 | 1016.8 |
| 20260507171056 | 49 | 0 | 0.0 | 1.0 | 0.00 | 0.18 | 0.11 | 88 | 1016.8 |
| 20260507170556 | 49 | 0 | 0.0 | 1.0 | 0.00 | 0.18 | 0.11 | 88 | 1016.8 |
| 20260507165558 | 49 | 0 | 0.0 | 0.0 | 0.00 | 0.18 | 0.11 | 88 | 1016.7 |
| 20260507165057 | 49 | 0 | 0.0 | 0.0 | 0.00 | 0.18 | 0.11 | 87 | 1016.7 |
| 20260507164633 | 49 | 0 | 0.0 | 1.0 | 0.00 | 0.18 | 0.11 | 87 | 1016.7 |
| 20260507164059 | 49 | 0 | 0.0 | 2.0 | 0.00 | 0.18 | 0.11 | 87 | 1016.7 |
| 20260507163557 | 48 | 0 | 0.0 | 2.0 | 0.00 | 0.18 | 0.11 | 88 | 1016.7 |
| 20260507163104 | 48 | 360 | 0.0 | 2.0 | 0.00 | 0.18 | 0.11 | 88 | 1016.7 |
| 20260507162556 | 48 | 0 | 0.0 | 0.0 | 0.00 | 0.18 | 0.11 | 88 | 1016.6 |
| 20260507162056 | 48 | 0 | 0.0 | 0.0 | 0.00 | 0.18 | 0.11 | 88 | 1016.6 |
| 20260507161606 | 48 | 0 | 0.0 | 1.0 | 0.00 | 0.18 | 0.11 | 88 | 1016.7 |
| 20260507161059 | 48 | 0 | 0.0 | 1.0 | 0.00 | 0.18 | 0.11 | 88 | 1016.6 |
| 20260507160559 | 48 | 0 | 0.0 | 2.0 | 0.00 | 0.18 | 0.11 | 88 | 1016.6 |
| 20260507160100 | 48 | 0 | 0.0 | 2.0 | 0.00 | 0.18 | 0.11 | 88 | 1016.6 |
| 20260507155557 | 48 | 0 | 0.0 | 4.0 | 0.00 | 0.20 | 0.11 | 88 | 1016.6 |
| 20260507155057 | 48 | 0 | 0.0 | 4.0 | 0.00 | 0.20 | 0.11 | 88 | 1016.6 |
| 20260507154611 | 48 | 360 | 1.0 | 4.0 | 0.00 | 0.20 | 0.11 | 89 | 1016.5 |
| 20260507154058 | 48 | 360 | 0.0 | 3.0 | 0.00 | 0.20 | 0.11 | 89 | 1016.5 |
| 20260507153557 | 48 | 360 | 0.0 | 2.0 | 0.00 | 0.20 | 0.11 | 88 | 1016.5 |
| 20260507153056 | 48 | 360 | 0.0 | 2.0 | 0.00 | 0.20 | 0.11 | 88 | 1016.5 |
| 20260507152557 | 48 | 360 | 0.0 | 3.0 | 0.00 | 0.20 | 0.11 | 89 | 1016.4 |
| 20260507152100 | 48 | 360 | 1.0 | 3.0 | 0.00 | 0.20 | 0.11 | 89 | 1016.5 |
| 20260507151601 | 48 | 0 | 0.0 | 2.0 | 0.00 | 0.20 | 0.11 | 88 | 1016.5 |
| 20260507151057 | 48 | 360 | 1.0 | 3.0 | 0.00 | 0.20 | 0.11 | 88 | 1016.4 |
| 20260507150557 | 48 | 360 | 1.0 | 3.0 | 0.00 | 0.20 | 0.11 | 88 | 1016.3 |
| 20260507150059 | 48 | 0 | 1.0 | 3.0 | 0.00 | 0.20 | 0.11 | 88 | 1016.3 |
| 20260507145559 | 48 | 360 | 1.0 | 3.0 | 0.00 | 0.25 | 0.11 | 88 | 1016.3 |
| 20260507145057 | 48 | 0 | 1.0 | 3.0 | 0.00 | 0.25 | 0.11 | 88 | 1016.3 |
| 20260507144600 | 48 | 0 | 1.0 | 4.0 | 0.00 | 0.25 | 0.11 | 88 | 1016.3 |
| 20260507144153 | 48 | 360 | 1.0 | 4.0 | 0.00 | 0.25 | 0.11 | 88 | 1016.3 |
| 20260507143557 | 48 | 0 | 0.0 | 3.0 | 0.00 | 0.25 | 0.11 | 88 | 1016.4 |
| 20260507143110 | 48 | 0 | 0.0 | 3.0 | 0.00 | 0.25 | 0.11 | 88 | 1016.3 |
| 20260507142557 | 48 | 0 | 0.0 | 3.0 | 0.00 | 0.25 | 0.11 | 88 | 1016.3 |
| 20260507142057 | 48 | 360 | 1.0 | 4.0 | 0.00 | 0.25 | 0.11 | 88 | 1016.2 |
| 20260507141621 | 48 | 360 | 1.0 | 4.0 | 0.00 | 0.25 | 0.11 | 88 | 1016.3 |
| 20260507141057 | 48 | 360 | 2.0 | 5.0 | 0.00 | 0.25 | 0.11 | 89 | 1016.2 |
| 20260507140559 | 48 | 360 | 2.0 | 5.0 | 0.00 | 0.25 | 0.11 | 89 | 1016.3 |
| 20260507140056 | 48 | 0 | 1.0 | 4.0 | 0.00 | 0.25 | 0.11 | 89 | 1016.3 |
| 20260507135557 | 48 | 360 | 1.0 | 6.0 | 0.00 | 0.25 | 0.11 | 89 | 1016.2 |
| 20260507135057 | 48 | 0 | 1.0 | 6.0 | 0.00 | 0.25 | 0.11 | 89 | 1016.2 |
| 20260507134600 | 48 | 360 | 2.0 | 6.0 | 0.00 | 0.25 | 0.11 | 89 | 1016.3 |
| 20260507134057 | 48 | 360 | 3.0 | 8.0 | 0.00 | 0.25 | 0.11 | 89 | 1016.2 |
| 20260507133558 | 48 | 360 | 2.0 | 8.0 | 0.00 | 0.25 | 0.11 | 89 | 1016.2 |
| 20260507133109 | 48 | 360 | 2.0 | 6.0 | 0.00 | 0.25 | 0.11 | 89 | 1016.2 |
| 20260507132558 | 48 | 360 | 2.0 | 5.0 | 0.00 | 0.25 | 0.11 | 89 | 1016.1 |
| 20260507132057 | 48 | 360 | 2.0 | 6.0 | 0.00 | 0.25 | 0.11 | 89 | 1016.1 |
| 20260507131613 | 48 | 360 | 2.0 | 6.0 | 0.00 | 0.25 | 0.11 | 89 | 1016.1 |
| 20260507131057 | 48 | 360 | 3.0 | 6.0 | 0.00 | 0.25 | 0.11 | 89 | 1016.0 |
| 20260507130557 | 48 | 360 | 1.0 | 5.0 | 0.00 | 0.25 | 0.11 | 89 | 1016.0 |
| 20260507130058 | 48 | 360 | 2.0 | 6.0 | 0.00 | 0.25 | 0.11 | 88 | 1015.9 |
| 20260507125557 | 48 | 360 | 3.0 | 6.0 | 0.00 | 0.26 | 0.11 | 88 | 1015.8 |
| 20260507125058 | 48 | 360 | 2.0 | 6.0 | 0.00 | 0.26 | 0.11 | 89 | 1015.8 |
| 20260507124558 | 48 | 360 | 2.0 | 6.0 | 0.00 | 0.26 | 0.11 | 89 | 1015.8 |
| 20260507124058 | 48 | 360 | 1.0 | 6.0 | 0.00 | 0.26 | 0.11 | 90 | 1015.7 |
| 20260507123558 | 48 | 360 | 3.0 | 8.0 | 0.00 | 0.26 | 0.11 | 90 | 1015.7 |
| 20260507123112 | 48 | 360 | 1.0 | 8.0 | 0.00 | 0.26 | 0.11 | 89 | 1015.7 |
| 20260507122559 | 48 | 360 | 4.0 | 8.0 | 0.00 | 0.26 | 0.11 | 89 | 1015.7 |